MCF1TR LIMJ-LIRN

Flight info

Callsign MCF1TR
Flight time 0h 56m
Altitude 19000
Route UNITA L50 KONER/N0457F350 DCT ELB DCT ELVIN DCT RIFFI DCT PNZ
Aircraft A320/M-SDE3FGHIRWY/LB1

Departure

Time 2026-04-24 19:48
Airport Genoa Cristoforo Colombo Airport (LIMJ)

Arrival

Time 2026-04-24 20:45
Airport Naples International Airport (LIRN)
Time Latitude Longitude Altitude Speed Heading
2026-04-24 18:56 44.41418 8.85039 22 ft 0 kts 15°
2026-04-24 19:32 44.41409 8.85035 20 ft 2 kts 15°
2026-04-24 19:33 44.41393 8.85029 22 ft 2 kts 15°
2026-04-24 19:33 44.41376 8.85023 24 ft 2 kts 15°
2026-04-24 19:33 44.41359 8.85018 23 ft 2 kts 333°
2026-04-24 19:33 44.41348 8.85034 24 ft 2 kts 261°
2026-04-24 19:34 44.41349 8.85044 23 ft 0 kts 251°
2026-04-24 19:41 44.41348 8.85034 20 ft 6 kts 258°
2026-04-24 19:41 44.41351 8.84969 20 ft 6 kts 280°
2026-04-24 19:41 44.41363 8.84901 20 ft 8 kts 284°
2026-04-24 19:42 44.41376 8.84829 21 ft 7 kts 284°
2026-04-24 19:42 44.41394 8.84735 20 ft 11 kts 285°
2026-04-24 19:42 44.41413 8.84635 20 ft 10 kts 284°
2026-04-24 19:42 44.41394 8.84551 20 ft 10 kts 233°
2026-04-24 19:43 44.41359 8.84485 20 ft 7 kts 233°
2026-04-24 19:43 44.41330 8.84432 20 ft 6 kts 233°
2026-04-24 19:43 44.41318 8.84351 20 ft 14 kts 279°
2026-04-24 19:43 44.41343 8.84215 21 ft 18 kts 285°
2026-04-24 19:44 44.41382 8.84014 20 ft 22 kts 285°
2026-04-24 19:44 44.41424 8.83799 20 ft 23 kts 284°
2026-04-24 19:44 44.41468 8.83574 20 ft 25 kts 285°
2026-04-24 19:44 44.41515 8.83338 20 ft 26 kts 285°
2026-04-24 19:45 44.41563 8.83092 22 ft 27 kts 285°
2026-04-24 19:45 44.41614 8.82836 20 ft 28 kts 285°
2026-04-24 19:45 44.41659 8.82604 22 ft 17 kts 285°
2026-04-24 19:45 44.41604 8.82497 18 ft 15 kts 191°
2026-04-24 19:46 44.41529 8.82486 17 ft 7 kts 150°
2026-04-24 19:46 44.41522 8.82507 18 ft 0 kts 106°
2026-04-24 19:47 44.41515 8.82544 18 ft 16 kts 105°
2026-04-24 19:47 44.41416 8.83055 21 ft 89 kts 104°
2026-04-24 19:48 44.41197 8.84174 23 ft 146 kts 105°
2026-04-24 19:48 44.40902 8.85656 472 ft 157 kts 106°
2026-04-24 19:48 44.39710 8.88023 1815 ft 160 kts 160°
2026-04-24 19:49 44.37416 8.89140 2837 ft 179 kts 161°
2026-04-24 19:49 44.35067 8.90314 4083 ft 182 kts 162°
2026-04-24 19:50 44.31314 8.92058 5663 ft 198 kts 167°
2026-04-24 19:50 44.29921 8.92474 6009 ft 215 kts 168°
2026-04-24 19:51 44.26662 8.93391 6522 ft 264 kts 168°
2026-04-24 19:51 44.24793 8.93919 7013 ft 281 kts 168°
2026-04-24 19:52 44.20875 8.95024 8594 ft 292 kts 167°
2026-04-24 19:52 44.18871 8.95591 9417 ft 296 kts 167°
2026-04-24 19:52 44.16835 8.96171 10219 ft 301 kts 167°
2026-04-24 19:52 44.14721 8.96775 10617 ft 321 kts 167°
2026-04-24 19:53 44.12454 8.97424 10859 ft 345 kts 167°
2026-04-24 19:53 44.10023 8.98115 11044 ft 368 kts 167°
2026-04-24 19:53 44.04708 8.99617 11489 ft 405 kts 167°
2026-04-24 19:54 44.01932 9.00402 12077 ft 410 kts 167°
2026-04-24 19:54 43.99128 9.01191 12710 ft 413 kts 167°
2026-04-24 19:54 43.96337 9.02204 13326 ft 416 kts 159°
2026-04-24 19:54 43.93702 9.03859 13951 ft 417 kts 149°
2026-04-24 19:55 43.92080 9.05300 14309 ft 418 kts 142°
2026-04-24 19:55 43.89066 9.08729 15045 ft 421 kts 139°
2026-04-24 19:55 43.86815 9.11342 15612 ft 423 kts 139°
2026-04-24 19:55 43.84548 9.13965 16146 ft 426 kts 139°
2026-04-24 19:56 43.82263 9.16600 16682 ft 429 kts 139°
2026-04-24 19:56 43.79962 9.19245 17210 ft 431 kts 139°
2026-04-24 19:56 43.77645 9.21910 17750 ft 434 kts 139°
2026-04-24 19:56 43.75320 9.24589 18258 ft 437 kts 139°
2026-04-24 19:57 43.72979 9.27285 18719 ft 439 kts 139°
2026-04-24 19:57 43.70622 9.29991 19153 ft 442 kts 139°
2026-04-24 19:57 43.68251 9.32707 19574 ft 444 kts 139°
2026-04-24 19:57 43.65871 9.35431 19994 ft 446 kts 139°
2026-04-24 19:58 43.63475 9.38172 20413 ft 448 kts 139°
2026-04-24 19:58 43.61072 9.40921 20833 ft 450 kts 139°
2026-04-24 19:58 43.58652 9.43683 21247 ft 452 kts 139°
2026-04-24 19:58 43.56220 9.46451 21641 ft 454 kts 139°
2026-04-24 19:59 43.53781 9.49227 22073 ft 455 kts 139°
2026-04-24 19:59 43.51331 9.52011 22470 ft 457 kts 139°
2026-04-24 19:59 43.48878 9.54800 22843 ft 459 kts 139°
2026-04-24 19:59 43.46416 9.57602 23202 ft 461 kts 139°
2026-04-24 20:00 43.43940 9.60418 23565 ft 462 kts 139°
2026-04-24 20:00 43.41455 9.63240 23887 ft 464 kts 139°
2026-04-24 20:00 43.38957 9.66074 24201 ft 465 kts 139°
2026-04-24 20:00 43.36462 9.68896 24623 ft 464 kts 139°
2026-04-24 20:01 43.33974 9.71705 25037 ft 463 kts 139°
2026-04-24 20:01 43.31482 9.74510 25463 ft 462 kts 139°
2026-04-24 20:01 43.28999 9.77304 25865 ft 461 kts 139°
2026-04-24 20:01 43.26526 9.80086 26282 ft 460 kts 139°
2026-04-24 20:02 43.24885 9.81932 26556 ft 460 kts 139°
2026-04-24 20:02 43.21582 9.85649 27155 ft 458 kts 138°
2026-04-24 20:02 43.19120 9.88415 27616 ft 457 kts 138°
2026-04-24 20:02 43.16664 9.91170 28050 ft 456 kts 138°
2026-04-24 20:03 43.14211 9.93916 28481 ft 455 kts 138°
2026-04-24 20:03 43.11756 9.96659 28924 ft 455 kts 138°
2026-04-24 20:03 43.09308 9.99395 29354 ft 454 kts 138°
2026-04-24 20:03 43.06868 10.02125 29792 ft 453 kts 137°
2026-04-24 20:04 43.04429 10.04853 30223 ft 453 kts 137°
2026-04-24 20:04 43.01989 10.07573 30599 ft 452 kts 137°
2026-04-24 20:04 42.99553 10.10279 30963 ft 451 kts 138°
2026-04-24 20:04 42.97115 10.12983 31335 ft 451 kts 137°
2026-04-24 20:05 42.94681 10.15681 31675 ft 451 kts 137°
2026-04-24 20:05 42.92254 10.18376 32034 ft 450 kts 137°
2026-04-24 20:05 42.89826 10.21070 32411 ft 449 kts 137°
2026-04-24 20:05 42.87401 10.23757 32811 ft 448 kts 137°
2026-04-24 20:06 42.84987 10.26428 33187 ft 447 kts 137°
2026-04-24 20:06 42.82574 10.29095 33555 ft 446 kts 137°
2026-04-24 20:06 42.80162 10.31754 33923 ft 445 kts 137°
2026-04-24 20:06 42.77758 10.34402 34253 ft 445 kts 137°
2026-04-24 20:07 42.76164 10.36154 34442 ft 444 kts 137°
2026-04-24 20:07 42.73014 10.39696 34609 ft 433 kts 133°
2026-04-24 20:07 42.70933 10.42661 34728 ft 434 kts 129°
2026-04-24 20:07 42.68883 10.45705 34867 ft 438 kts 129°
2026-04-24 20:08 42.66815 10.48766 35091 ft 440 kts 129°
2026-04-24 20:08 42.64743 10.51820 35332 ft 440 kts 129°
2026-04-24 20:08 42.62659 10.54877 35580 ft 440 kts 129°
2026-04-24 20:08 42.60576 10.57919 35844 ft 440 kts 129°
2026-04-24 20:09 42.58494 10.60951 36057 ft 439 kts 129°
2026-04-24 20:09 42.54303 10.67056 36133 ft 444 kts 129°
2026-04-24 20:10 42.50105 10.73197 36129 ft 446 kts 129°
2026-04-24 20:10 42.46582 10.78322 36130 ft 448 kts 130°
2026-04-24 20:11 42.42324 10.84472 36133 ft 448 kts 130°
2026-04-24 20:11 42.38066 10.90632 36131 ft 448 kts 130°
2026-04-24 20:12 42.33812 10.96796 36135 ft 448 kts 130°
2026-04-24 20:12 42.29552 11.02947 36137 ft 448 kts 130°
2026-04-24 20:13 42.25282 11.09088 36138 ft 449 kts 130°
2026-04-24 20:13 42.21005 11.15222 36144 ft 449 kts 130°
2026-04-24 20:14 42.16726 11.21353 36145 ft 449 kts 130°
2026-04-24 20:14 42.12439 11.27475 36140 ft 449 kts 130°
2026-04-24 20:15 42.08155 11.33593 36152 ft 449 kts 130°
2026-04-24 20:15 42.03867 11.39702 36157 ft 449 kts 130°
2026-04-24 20:16 41.99573 11.45796 36147 ft 449 kts 130°
2026-04-24 20:16 41.95276 11.51878 36143 ft 449 kts 130°
2026-04-24 20:17 41.90974 11.57952 36140 ft 449 kts 130°
2026-04-24 20:17 41.84525 11.67050 36135 ft 448 kts 130°
2026-04-24 20:18 41.80223 11.73104 36167 ft 448 kts 130°
2026-04-24 20:18 41.75920 11.79147 36160 ft 448 kts 130°
2026-04-24 20:19 41.71614 11.85189 36156 ft 449 kts 130°
2026-04-24 20:19 41.67301 11.91226 36149 ft 449 kts 130°
2026-04-24 20:20 41.62987 11.97253 36141 ft 449 kts 130°
2026-04-24 20:20 41.58662 12.03276 36128 ft 449 kts 130°
2026-04-24 20:21 41.54335 12.09277 36148 ft 449 kts 131°
2026-04-24 20:21 41.50002 12.15286 36131 ft 449 kts 131°
2026-04-24 20:22 41.45643 12.21322 36135 ft 449 kts 131°
2026-04-24 20:22 41.41300 12.27314 36131 ft 449 kts 131°
2026-04-24 20:23 41.36963 12.33298 36121 ft 449 kts 131°
2026-04-24 20:23 41.32622 12.39278 36131 ft 449 kts 131°
2026-04-24 20:24 41.28297 12.45208 36145 ft 450 kts 131°
2026-04-24 20:24 41.23937 12.51172 36147 ft 450 kts 131°
2026-04-24 20:25 41.19576 12.57132 36139 ft 450 kts 131°
2026-04-24 20:25 41.15189 12.63127 36138 ft 450 kts 131°
2026-04-24 20:26 41.10852 12.69045 36133 ft 450 kts 131°
2026-04-24 20:26 41.06460 12.75026 36140 ft 450 kts 131°
2026-04-24 20:27 41.02086 12.80966 36163 ft 449 kts 131°
2026-04-24 20:27 40.97772 12.86818 36161 ft 446 kts 131°
2026-04-24 20:28 40.94195 12.93379 36156 ft 437 kts 113°
2026-04-24 20:28 40.93077 12.97102 35850 ft 435 kts 104°
2026-04-24 20:28 40.92455 13.01004 35071 ft 434 kts 94°
2026-04-24 20:29 40.92336 13.03688 34577 ft 433 kts 88°
2026-04-24 20:29 40.92705 13.08906 33238 ft 428 kts 81°
2026-04-24 20:29 40.93155 13.12807 31752 ft 431 kts 81°
2026-04-24 20:29 40.93611 13.16743 30262 ft 434 kts 82°
2026-04-24 20:30 40.94071 13.20738 28863 ft 443 kts 82°
2026-04-24 20:30 40.94531 13.24746 27369 ft 440 kts 82°
2026-04-24 20:30 40.94991 13.28762 25487 ft 444 kts 82°
2026-04-24 20:30 40.95453 13.32828 23751 ft 448 kts 82°
2026-04-24 20:31 40.95911 13.36865 22228 ft 440 kts 82°
2026-04-24 20:31 40.96359 13.40832 20827 ft 433 kts 81°
2026-04-24 20:31 40.96799 13.44731 19498 ft 426 kts 81°
2026-04-24 20:31 40.97231 13.48589 18203 ft 420 kts 81°
2026-04-24 20:32 40.97659 13.52428 17243 ft 420 kts 81°
2026-04-24 20:32 40.98080 13.56227 16621 ft 415 kts 81°
2026-04-24 20:32 40.98492 13.59982 15937 ft 411 kts 80°
2026-04-24 20:32 40.98900 13.63709 15266 ft 408 kts 80°
2026-04-24 20:33 40.99307 13.67408 14610 ft 405 kts 79°
2026-04-24 20:33 40.99714 13.71077 13983 ft 402 kts 79°
2026-04-24 20:33 41.00116 13.74721 13312 ft 398 kts 79°
2026-04-24 20:33 41.00510 13.78326 12710 ft 393 kts 79°
2026-04-24 20:34 41.00894 13.81879 12108 ft 388 kts 80°
2026-04-24 20:34 41.01272 13.85390 11531 ft 382 kts 80°
2026-04-24 20:34 41.01642 13.88805 11375 ft 366 kts 80°
2026-04-24 20:34 41.01995 13.92060 11249 ft 350 kts 80°
2026-04-24 20:35 41.02331 13.95183 11131 ft 335 kts 80°
2026-04-24 20:35 41.02652 13.98173 10997 ft 322 kts 80°
2026-04-24 20:35 41.02958 14.01048 10881 ft 309 kts 80°
2026-04-24 20:35 41.03254 14.03820 10756 ft 298 kts 80°
2026-04-24 20:36 41.03541 14.06497 10600 ft 289 kts 79°
2026-04-24 20:36 41.03820 14.09105 10356 ft 284 kts 80°
2026-04-24 20:36 41.04095 14.11683 10059 ft 281 kts 80°
2026-04-24 20:36 41.04364 14.14235 9743 ft 278 kts 80°
2026-04-24 20:37 41.04632 14.16767 9361 ft 277 kts 80°
2026-04-24 20:37 41.04897 14.19292 8984 ft 276 kts 80°
2026-04-24 20:37 41.05159 14.21798 8617 ft 274 kts 79°
2026-04-24 20:37 41.05419 14.24288 8255 ft 272 kts 79°
2026-04-24 20:38 41.05680 14.26763 7886 ft 270 kts 79°
2026-04-24 20:38 41.05940 14.29217 7508 ft 268 kts 79°
2026-04-24 20:38 41.06194 14.31657 7148 ft 267 kts 78°
2026-04-24 20:38 41.06446 14.34084 6779 ft 265 kts 78°
2026-04-24 20:39 41.06698 14.36493 6413 ft 263 kts 78°
2026-04-24 20:39 41.06951 14.38890 5994 ft 262 kts 78°
2026-04-24 20:39 41.07139 14.41296 5570 ft 264 kts 89°
2026-04-24 20:39 41.06728 14.43666 5191 ft 268 kts 112°
2026-04-24 20:40 41.05626 14.45649 4756 ft 271 kts 137°
2026-04-24 20:40 41.04075 14.47029 4362 ft 271 kts 148°
2026-04-24 20:40 41.02457 14.48330 3921 ft 269 kts 148°
2026-04-24 20:40 41.00851 14.49589 3634 ft 266 kts 153°
2026-04-24 20:41 40.99060 14.50042 3458 ft 265 kts 188°
2026-04-24 20:41 40.97415 14.49044 3280 ft 263 kts 225°
2026-04-24 20:41 40.96539 14.47021 3108 ft 249 kts 257°
2026-04-24 20:41 40.96132 14.44908 2962 ft 227 kts 245°
2026-04-24 20:42 40.95308 14.43197 2750 ft 216 kts 236°
2026-04-24 20:42 40.94489 14.41567 2439 ft 210 kts 238°
2026-04-24 20:42 40.93717 14.39948 2139 ft 205 kts 239°
2026-04-24 20:42 40.92983 14.38390 1854 ft 192 kts 239°
2026-04-24 20:43 40.92305 14.36947 1569 ft 180 kts 238°
2026-04-24 20:43 40.91666 14.35587 1303 ft 170 kts 238°
2026-04-24 20:43 40.91057 14.34292 1054 ft 161 kts 238°
2026-04-24 20:43 40.90478 14.33062 821 ft 154 kts 238°
2026-04-24 20:44 40.89925 14.31888 602 ft 147 kts 238°
2026-04-24 20:44 40.89391 14.30744 384 ft 145 kts 238°
2026-04-24 20:44 40.88867 14.29630 256 ft 134 kts 237°
2026-04-24 20:44 40.88504 14.28867 272 ft 55 kts 238°
2026-04-24 20:45 40.88435 14.28758 275 ft 8 kts 186°
2026-04-24 20:45 40.88367 14.28804 275 ft 12 kts 148°
2026-04-24 20:45 40.88304 14.28856 275 ft 10 kts 148°
2026-04-24 20:45 40.88249 14.28899 276 ft 8 kts 152°
2026-04-24 20:46 40.88209 14.28886 276 ft 6 kts 224°
2026-04-24 20:46 40.88169 14.28817 278 ft 11 kts 233°
2026-04-24 20:46 40.88129 14.28749 280 ft 8 kts 232°
2026-04-24 20:46 40.88099 14.28696 281 ft 8 kts 232°
2026-04-24 20:47 40.88057 14.28625 283 ft 12 kts 233°
2026-04-24 20:47 40.88006 14.28537 285 ft 12 kts 229°
2026-04-24 20:47 40.87948 14.28469 287 ft 8 kts 226°
2026-04-24 20:47 40.87949 14.28429 288 ft 5 kts 318°
2026-04-24 20:48 40.87991 14.28392 288 ft 2 kts 332°
2026-04-24 20:48 40.88009 14.28381 288 ft 0 kts 334°